Year,Month,Day,Hour,Minute,Value (Times are PST for temperature in C)
2014,07,16,00,00,22.90
2014,07,16,00,01,22.90
2014,07,16,00,02,22.90
2014,07,16,00,03,22.80
2014,07,16,00,04,22.80
2014,07,16,00,05,22.80
2014,07,16,00,06,22.80
2014,07,16,00,07,22.80
2014,07,16,00,08,22.80
2014,07,16,00,09,22.70
2014,07,16,00,10,22.70
2014,07,16,00,11,22.70
2014,07,16,00,12,22.70
2014,07,16,00,13,22.60
2014,07,16,00,14,22.60
2014,07,16,00,15,22.60
2014,07,16,00,16,22.60
2014,07,16,00,17,22.60
2014,07,16,00,18,22.50
2014,07,16,00,19,22.50
2014,07,16,00,20,22.40
2014,07,16,00,21,22.40
2014,07,16,00,22,22.40
2014,07,16,00,23,22.30
2014,07,16,00,24,22.30
2014,07,16,00,25,22.30
2014,07,16,00,26,22.20
2014,07,16,00,27,22.20
2014,07,16,00,28,22.20
2014,07,16,00,29,22.10
2014,07,16,00,30,22.10
2014,07,16,00,31,22.10
2014,07,16,00,32,22.10
2014,07,16,00,33,22.10
2014,07,16,00,34,22.00
2014,07,16,00,35,22.00
2014,07,16,00,36,22.00
2014,07,16,00,37,22.00
2014,07,16,00,38,22.00
2014,07,16,00,39,22.00
2014,07,16,00,40,22.00
2014,07,16,00,41,22.00
2014,07,16,00,42,22.00
2014,07,16,00,43,22.00
2014,07,16,00,44,21.90
2014,07,16,00,45,21.90
2014,07,16,00,46,21.90
2014,07,16,00,47,21.90
2014,07,16,00,48,21.90
2014,07,16,00,49,21.80
2014,07,16,00,50,21.80
2014,07,16,00,51,21.80
2014,07,16,00,52,21.70
2014,07,16,00,53,21.70
2014,07,16,00,54,21.70
2014,07,16,00,55,21.70
2014,07,16,00,56,21.70
2014,07,16,00,57,21.70
2014,07,16,00,58,21.70
2014,07,16,00,59,21.70
2014,07,16,01,00,21.70
2014,07,16,01,01,21.70
2014,07,16,01,02,21.70
2014,07,16,01,03,21.70
2014,07,16,01,04,21.70
2014,07,16,01,05,21.70
2014,07,16,01,06,21.70
2014,07,16,01,07,21.60
2014,07,16,01,08,21.60
2014,07,16,01,09,21.60
2014,07,16,01,10,21.60
2014,07,16,01,11,21.50
2014,07,16,01,12,21.50
2014,07,16,01,13,21.40
2014,07,16,01,14,21.40
2014,07,16,01,15,21.30
2014,07,16,01,16,21.30
2014,07,16,01,17,21.30
2014,07,16,01,18,21.20
2014,07,16,01,19,21.20
2014,07,16,01,20,21.10
2014,07,16,01,21,21.10
2014,07,16,01,22,21.10
2014,07,16,01,23,21.00
2014,07,16,01,24,21.00
2014,07,16,01,25,20.90
2014,07,16,01,26,20.90
2014,07,16,01,27,20.90
2014,07,16,01,28,20.90
2014,07,16,01,29,20.80
2014,07,16,01,30,20.80
2014,07,16,01,31,20.80
2014,07,16,01,32,20.80
2014,07,16,01,33,20.80
2014,07,16,01,34,20.80
2014,07,16,01,35,20.80
2014,07,16,01,36,20.80
2014,07,16,01,37,20.70
2014,07,16,01,38,20.70
2014,07,16,01,39,20.70
2014,07,16,01,40,20.70
2014,07,16,01,41,20.70
2014,07,16,01,42,20.70
2014,07,16,01,43,20.70
2014,07,16,01,44,20.70
2014,07,16,01,45,20.70
2014,07,16,01,46,20.70
2014,07,16,01,47,20.70
2014,07,16,01,48,20.60
2014,07,16,01,49,20.60
2014,07,16,01,50,20.60
2014,07,16,01,51,20.60
2014,07,16,01,52,20.60
2014,07,16,01,53,20.60
2014,07,16,01,54,20.50
2014,07,16,01,55,20.50
2014,07,16,01,56,20.40
2014,07,16,01,57,20.40
2014,07,16,01,58,20.40
2014,07,16,01,59,20.30
2014,07,16,02,00,20.30
2014,07,16,02,01,20.30
2014,07,16,02,02,20.30
2014,07,16,02,03,20.30
2014,07,16,02,04,20.30
2014,07,16,02,05,20.20
2014,07,16,02,06,20.20
2014,07,16,02,07,20.20
2014,07,16,02,08,20.20
2014,07,16,02,09,20.20
2014,07,16,02,10,20.10
2014,07,16,02,11,20.10
2014,07,16,02,12,20.10
2014,07,16,02,13,20.10
2014,07,16,02,14,20.10
2014,07,16,02,15,20.10
2014,07,16,02,16,20.10
2014,07,16,02,17,20.00
2014,07,16,02,18,20.00
2014,07,16,02,19,20.00
2014,07,16,02,20,20.00
2014,07,16,02,21,20.00
2014,07,16,02,22,19.90
2014,07,16,02,23,19.90
2014,07,16,02,24,19.90
2014,07,16,02,25,19.90
2014,07,16,02,26,19.90
2014,07,16,02,27,19.90
2014,07,16,02,28,19.90
2014,07,16,02,29,19.90
2014,07,16,02,30,19.90
2014,07,16,02,31,19.90
2014,07,16,02,32,19.90
2014,07,16,02,33,19.90
2014,07,16,02,34,19.80
2014,07,16,02,35,19.80
2014,07,16,02,36,19.80
2014,07,16,02,37,19.80
2014,07,16,02,38,19.80
2014,07,16,02,39,19.80
2014,07,16,02,40,19.80
2014,07,16,02,41,19.80
2014,07,16,02,42,19.70
2014,07,16,02,43,19.70
2014,07,16,02,44,19.70
2014,07,16,02,45,19.70
2014,07,16,02,46,19.70
2014,07,16,02,47,19.70
2014,07,16,02,48,19.70
2014,07,16,02,49,19.70
2014,07,16,02,50,19.70
2014,07,16,02,51,19.70
2014,07,16,02,52,19.70
2014,07,16,02,53,19.70
2014,07,16,02,54,19.70
2014,07,16,02,55,19.70
2014,07,16,02,56,19.70
2014,07,16,02,57,19.70
2014,07,16,02,58,19.70
2014,07,16,02,59,19.70
2014,07,16,03,00,19.60
2014,07,16,03,01,19.60
2014,07,16,03,02,19.60
2014,07,16,03,03,19.60
2014,07,16,03,04,19.60
2014,07,16,03,05,19.60
2014,07,16,03,06,19.60
2014,07,16,03,07,19.60
2014,07,16,03,08,19.60
2014,07,16,03,09,19.60
2014,07,16,03,10,19.60
2014,07,16,03,11,19.60
2014,07,16,03,12,19.60
2014,07,16,03,13,19.60
2014,07,16,03,14,19.50
2014,07,16,03,15,19.50
2014,07,16,03,16,19.50
2014,07,16,03,17,19.50
2014,07,16,03,18,19.40
2014,07,16,03,19,19.40
2014,07,16,03,20,19.40
2014,07,16,03,21,19.40
2014,07,16,03,22,19.40
2014,07,16,03,23,19.40
2014,07,16,03,24,19.30
2014,07,16,03,25,19.30
2014,07,16,03,26,19.30
2014,07,16,03,27,19.30
2014,07,16,03,28,19.30
2014,07,16,03,29,19.30
2014,07,16,03,30,19.30
2014,07,16,03,31,19.30
2014,07,16,03,32,19.20
2014,07,16,03,33,19.20
2014,07,16,03,34,19.20
2014,07,16,03,35,19.20
2014,07,16,03,36,19.20
2014,07,16,03,37,19.20
2014,07,16,03,38,19.20
2014,07,16,03,39,19.10
2014,07,16,03,40,19.10
2014,07,16,03,41,19.10
2014,07,16,03,42,19.10
2014,07,16,03,43,19.10
2014,07,16,03,44,19.10
2014,07,16,03,45,19.10
2014,07,16,03,46,19.10
2014,07,16,03,47,19.10
2014,07,16,03,48,19.10
2014,07,16,03,49,19.10
2014,07,16,03,50,19.00
2014,07,16,03,51,19.00
2014,07,16,03,52,19.00
2014,07,16,03,53,18.90
2014,07,16,03,54,18.90
2014,07,16,03,55,18.90
2014,07,16,03,56,18.90
2014,07,16,03,57,18.90
2014,07,16,03,58,18.90
2014,07,16,03,59,18.90
2014,07,16,04,00,18.80
2014,07,16,04,01,18.80
2014,07,16,04,02,18.80
2014,07,16,04,03,18.80
2014,07,16,04,04,18.80
2014,07,16,04,05,18.80
2014,07,16,04,06,18.80
2014,07,16,04,07,18.80
2014,07,16,04,08,18.80
2014,07,16,04,09,18.80
2014,07,16,04,10,18.80
2014,07,16,04,11,18.80
2014,07,16,04,12,18.80
2014,07,16,04,13,18.80
2014,07,16,04,14,18.80
2014,07,16,04,15,18.80
2014,07,16,04,16,18.80
2014,07,16,04,17,18.80
2014,07,16,04,18,18.80
2014,07,16,04,19,18.80
2014,07,16,04,20,18.70
2014,07,16,04,21,18.70
2014,07,16,04,22,18.70
2014,07,16,04,23,18.70
2014,07,16,04,24,18.70
2014,07,16,04,25,18.70
2014,07,16,04,26,18.70
2014,07,16,04,27,18.70
2014,07,16,04,28,18.70
2014,07,16,04,29,18.70
2014,07,16,04,30,18.70
2014,07,16,04,31,18.70
2014,07,16,04,32,18.60
2014,07,16,04,33,18.60
2014,07,16,04,34,18.60
2014,07,16,04,35,18.60
2014,07,16,04,36,18.60
2014,07,16,04,37,18.60
2014,07,16,04,38,18.60
2014,07,16,04,39,18.60
2014,07,16,04,40,18.60
2014,07,16,04,41,18.60
2014,07,16,04,42,18.60
2014,07,16,04,43,18.60
2014,07,16,04,44,18.50
2014,07,16,04,45,18.50
2014,07,16,04,46,18.50
2014,07,16,04,47,18.50
2014,07,16,04,48,18.40
2014,07,16,04,49,18.40
2014,07,16,04,50,18.40
2014,07,16,04,51,18.40
2014,07,16,04,52,18.40
2014,07,16,04,53,18.40
2014,07,16,04,54,18.40
2014,07,16,04,55,18.40
2014,07,16,04,56,18.40
2014,07,16,04,57,18.40
2014,07,16,04,58,18.40
2014,07,16,04,59,18.40
2014,07,16,05,00,18.40
2014,07,16,05,01,18.40
2014,07,16,05,02,18.40
2014,07,16,05,03,18.40
2014,07,16,05,04,18.40
2014,07,16,05,05,18.30
2014,07,16,05,06,18.30
2014,07,16,05,07,18.30
2014,07,16,05,08,18.30
2014,07,16,05,09,18.30
2014,07,16,05,10,18.30
2014,07,16,05,11,18.30
2014,07,16,05,12,18.30
2014,07,16,05,13,18.30
2014,07,16,05,14,18.30
2014,07,16,05,15,18.30
2014,07,16,05,16,18.30
2014,07,16,05,17,18.30
2014,07,16,05,18,18.30
2014,07,16,05,19,18.30
2014,07,16,05,20,18.30
2014,07,16,05,21,18.30
2014,07,16,05,22,18.20
2014,07,16,05,23,18.20
2014,07,16,05,24,18.20
2014,07,16,05,25,18.20
2014,07,16,05,26,18.30
2014,07,16,05,27,18.20
2014,07,16,05,28,18.20
2014,07,16,05,29,18.30
2014,07,16,05,30,18.30
2014,07,16,05,31,18.30
2014,07,16,05,32,18.30
2014,07,16,05,33,18.30
2014,07,16,05,34,18.30
2014,07,16,05,35,18.30
2014,07,16,05,36,18.30
2014,07,16,05,37,18.30
2014,07,16,05,38,18.30
2014,07,16,05,39,18.30
2014,07,16,05,40,18.30
2014,07,16,05,41,18.40
2014,07,16,05,42,18.40
2014,07,16,05,43,18.40
2014,07,16,05,44,18.40
2014,07,16,05,45,18.40
2014,07,16,05,46,18.40
2014,07,16,05,47,18.40
2014,07,16,05,48,18.40
2014,07,16,05,49,18.40
2014,07,16,05,50,18.40
2014,07,16,05,51,18.40
2014,07,16,05,52,18.40
2014,07,16,05,53,18.40
2014,07,16,05,54,18.40
2014,07,16,05,55,18.40
2014,07,16,05,56,18.40
2014,07,16,05,57,18.40
2014,07,16,05,58,18.40
2014,07,16,05,59,18.40
2014,07,16,06,00,18.40
2014,07,16,06,01,18.40
2014,07,16,06,02,18.40
2014,07,16,06,03,18.40
2014,07,16,06,04,18.50
2014,07,16,06,05,18.50
2014,07,16,06,06,18.60
2014,07,16,06,07,18.60
2014,07,16,06,08,18.60
2014,07,16,06,09,18.60
2014,07,16,06,10,18.60
2014,07,16,06,11,18.60
2014,07,16,06,12,18.70
2014,07,16,06,13,18.70
2014,07,16,06,14,18.70
2014,07,16,06,15,18.70
2014,07,16,06,16,18.70
2014,07,16,06,17,18.70
2014,07,16,06,18,18.70
2014,07,16,06,19,18.70
2014,07,16,06,20,18.80
2014,07,16,06,21,18.80
2014,07,16,06,22,18.80
2014,07,16,06,23,18.80
2014,07,16,06,24,18.80
2014,07,16,06,25,18.80
2014,07,16,06,26,18.80
2014,07,16,06,27,18.80
2014,07,16,06,28,18.80
2014,07,16,06,29,18.80
2014,07,16,06,30,18.80
2014,07,16,06,31,18.80
2014,07,16,06,32,18.90
2014,07,16,06,33,18.90
2014,07,16,06,34,18.90
2014,07,16,06,35,19.00
2014,07,16,06,36,19.10
2014,07,16,06,37,19.10
2014,07,16,06,38,19.10
2014,07,16,06,39,19.10
2014,07,16,06,40,19.10
2014,07,16,06,41,19.20
2014,07,16,06,42,19.20
2014,07,16,06,43,19.20
2014,07,16,06,44,19.20
2014,07,16,06,45,19.20
2014,07,16,06,46,19.20
2014,07,16,06,47,19.20
2014,07,16,06,48,19.30
2014,07,16,06,49,19.30
2014,07,16,06,50,19.30
2014,07,16,06,51,19.30
2014,07,16,06,52,19.30
2014,07,16,06,53,19.30
2014,07,16,06,54,19.30
2014,07,16,06,55,19.30
2014,07,16,06,56,19.30
2014,07,16,06,57,19.30
2014,07,16,06,58,19.30
2014,07,16,06,59,19.40
2014,07,16,07,00,19.40
2014,07,16,07,01,19.40
2014,07,16,07,02,19.40
2014,07,16,07,03,19.40
2014,07,16,07,04,19.40
2014,07,16,07,05,19.40
2014,07,16,07,06,19.40
2014,07,16,07,07,19.40
2014,07,16,07,08,19.40
2014,07,16,07,09,19.40
2014,07,16,07,10,19.40
2014,07,16,07,11,19.40
2014,07,16,07,12,19.40
2014,07,16,07,13,19.40
2014,07,16,07,14,19.40
2014,07,16,07,15,19.40
2014,07,16,07,16,19.30
2014,07,16,07,17,19.30
2014,07,16,07,18,19.30
2014,07,16,07,19,19.30
2014,07,16,07,20,19.30
2014,07,16,07,21,19.30
2014,07,16,07,22,19.30
2014,07,16,07,23,19.30
2014,07,16,07,24,19.40
2014,07,16,07,25,19.40
2014,07,16,07,26,19.40
2014,07,16,07,27,19.40
2014,07,16,07,28,19.40
2014,07,16,07,29,19.50
2014,07,16,07,30,19.50
2014,07,16,07,31,19.50
2014,07,16,07,32,19.60
2014,07,16,07,33,19.60
2014,07,16,07,34,19.60
2014,07,16,07,35,19.60
2014,07,16,07,36,19.60
2014,07,16,07,37,19.60
2014,07,16,07,38,19.60
2014,07,16,07,39,19.60
2014,07,16,07,40,19.60
2014,07,16,07,41,19.60
2014,07,16,07,42,19.60
2014,07,16,07,43,19.70
2014,07,16,07,44,19.70
2014,07,16,07,45,19.70
2014,07,16,07,46,19.70
2014,07,16,07,47,19.80
2014,07,16,07,48,19.80
2014,07,16,07,49,19.80
2014,07,16,07,50,19.80
2014,07,16,07,51,19.90
2014,07,16,07,52,19.90
2014,07,16,07,53,19.90
2014,07,16,07,54,19.90
2014,07,16,07,55,19.90
2014,07,16,07,56,19.90
2014,07,16,07,57,19.90
2014,07,16,07,58,20.00
2014,07,16,07,59,20.00
2014,07,16,08,00,20.10
2014,07,16,08,01,20.10
2014,07,16,08,02,20.10
2014,07,16,08,03,20.10
2014,07,16,08,04,20.10
2014,07,16,08,05,20.10
2014,07,16,08,06,20.20
2014,07,16,08,07,20.20
2014,07,16,08,08,20.20
2014,07,16,08,09,20.20
2014,07,16,08,10,20.20
2014,07,16,08,11,20.20
2014,07,16,08,12,20.20
2014,07,16,08,13,20.20
2014,07,16,08,14,20.30
2014,07,16,08,15,20.30
2014,07,16,08,16,20.30
2014,07,16,08,17,20.30
2014,07,16,08,18,20.30
2014,07,16,08,19,20.40
2014,07,16,08,20,20.40
2014,07,16,08,21,20.40
2014,07,16,08,22,20.40
2014,07,16,08,23,20.40
2014,07,16,08,24,20.40
2014,07,16,08,25,20.40
2014,07,16,08,26,20.40
2014,07,16,08,27,20.40
2014,07,16,08,28,20.40
2014,07,16,08,29,20.50
2014,07,16,08,30,20.50
2014,07,16,08,31,20.50
2014,07,16,08,32,20.60
2014,07,16,08,33,20.60
2014,07,16,08,34,20.60
2014,07,16,08,35,20.60
2014,07,16,08,36,20.70
2014,07,16,08,37,20.70
2014,07,16,08,38,20.70
2014,07,16,08,39,20.80
2014,07,16,08,40,20.80
2014,07,16,08,41,20.90
2014,07,16,08,42,20.90
2014,07,16,08,43,20.90
2014,07,16,08,44,21.00
2014,07,16,08,45,21.00
2014,07,16,08,46,21.00
2014,07,16,08,47,21.10
2014,07,16,08,48,21.10
2014,07,16,08,49,21.10
2014,07,16,08,50,21.10
2014,07,16,08,51,21.20
2014,07,16,08,52,21.20
2014,07,16,08,53,21.20
2014,07,16,08,54,21.30
2014,07,16,08,55,21.30
2014,07,16,08,56,21.30
2014,07,16,08,57,21.30
2014,07,16,08,58,21.40
2014,07,16,08,59,21.40
2014,07,16,09,00,21.50
2014,07,16,09,01,21.50
2014,07,16,09,02,21.60
2014,07,16,09,03,21.60
2014,07,16,09,04,21.70
2014,07,16,09,05,21.70
2014,07,16,09,06,21.70
2014,07,16,09,07,21.80
2014,07,16,09,08,21.80
2014,07,16,09,09,21.80
2014,07,16,09,10,21.80
2014,07,16,09,11,21.90
2014,07,16,09,12,21.90
2014,07,16,09,13,21.90
2014,07,16,09,14,21.90
2014,07,16,09,15,21.80
2014,07,16,09,16,21.80
2014,07,16,09,17,21.80
2014,07,16,09,18,21.80
2014,07,16,09,19,21.80
2014,07,16,09,20,21.80
2014,07,16,09,21,21.90
2014,07,16,09,22,21.90
2014,07,16,09,23,22.00
2014,07,16,09,24,22.10
2014,07,16,09,25,22.00
2014,07,16,09,26,22.00
2014,07,16,09,27,22.00
2014,07,16,09,28,22.00
2014,07,16,09,29,22.10
2014,07,16,09,30,22.10
2014,07,16,09,31,22.10
2014,07,16,09,32,22.10
2014,07,16,09,33,22.20
2014,07,16,09,34,22.20
2014,07,16,09,35,22.20
2014,07,16,09,36,22.20
2014,07,16,09,37,22.20
2014,07,16,09,38,22.20
2014,07,16,09,39,22.20
2014,07,16,09,40,22.20
2014,07,16,09,41,22.20
2014,07,16,09,42,22.20
2014,07,16,09,43,22.10
2014,07,16,09,44,22.10
2014,07,16,09,45,22.10
2014,07,16,09,46,22.10
2014,07,16,09,47,22.10
2014,07,16,09,48,22.10
2014,07,16,09,49,22.10
2014,07,16,09,50,22.10
2014,07,16,09,51,22.20
2014,07,16,09,52,22.20
2014,07,16,09,53,22.20
2014,07,16,09,54,22.20
2014,07,16,09,55,22.20
2014,07,16,09,56,22.20
2014,07,16,09,57,22.30
2014,07,16,09,58,22.30
2014,07,16,09,59,22.30
2014,07,16,10,00,22.30
2014,07,16,10,01,22.40
2014,07,16,10,02,22.40
2014,07,16,10,03,22.40
2014,07,16,10,04,22.50
2014,07,16,10,05,22.60
2014,07,16,10,06,22.60
2014,07,16,10,07,22.70
2014,07,16,10,08,22.70
2014,07,16,10,09,22.70
2014,07,16,10,10,22.70
2014,07,16,10,11,22.60
2014,07,16,10,12,22.40
2014,07,16,10,13,22.30
2014,07,16,10,14,22.20
2014,07,16,10,15,22.20
2014,07,16,10,16,22.20
2014,07,16,10,17,22.20
2014,07,16,10,18,22.10
2014,07,16,10,19,22.10
2014,07,16,10,20,22.10
2014,07,16,10,21,22.10
2014,07,16,10,22,22.10
2014,07,16,10,23,22.10
2014,07,16,10,24,22.20
2014,07,16,10,25,22.30
2014,07,16,10,26,22.40
2014,07,16,10,27,22.40
2014,07,16,10,28,22.40
2014,07,16,10,29,22.40
2014,07,16,10,30,22.50
2014,07,16,10,31,22.60
2014,07,16,10,32,22.60
2014,07,16,10,33,22.70
2014,07,16,10,34,22.70
2014,07,16,10,35,22.80
2014,07,16,10,36,22.90
2014,07,16,10,37,22.90
2014,07,16,10,38,23.00
2014,07,16,10,39,23.00
2014,07,16,10,40,23.10
2014,07,16,10,41,23.00
2014,07,16,10,42,23.00
2014,07,16,10,43,23.00
2014,07,16,10,44,23.00
2014,07,16,10,45,23.00
2014,07,16,10,46,23.00
2014,07,16,10,47,23.00
2014,07,16,10,48,23.10
2014,07,16,10,49,23.10
2014,07,16,10,50,23.10
2014,07,16,10,51,23.00
2014,07,16,10,52,23.00
2014,07,16,10,53,23.00
2014,07,16,10,54,22.90
2014,07,16,10,55,22.90
2014,07,16,10,56,22.80
2014,07,16,10,57,22.70
2014,07,16,10,58,22.60
2014,07,16,10,59,22.60
2014,07,16,11,00,22.50
2014,07,16,11,01,22.40
2014,07,16,11,02,22.30
2014,07,16,11,03,22.30
2014,07,16,11,04,22.30
2014,07,16,11,05,22.20
2014,07,16,11,06,22.30
2014,07,16,11,07,22.30
2014,07,16,11,08,22.30
2014,07,16,11,09,22.40
2014,07,16,11,10,22.40
2014,07,16,11,11,22.50
2014,07,16,11,12,22.60
2014,07,16,11,13,22.70
2014,07,16,11,14,22.80
2014,07,16,11,15,22.90
2014,07,16,11,16,22.90
2014,07,16,11,17,22.90
2014,07,16,11,18,22.90
2014,07,16,11,19,22.90
2014,07,16,11,20,22.90
2014,07,16,11,21,22.90
2014,07,16,11,22,22.90
2014,07,16,11,23,23.00
2014,07,16,11,24,22.90
2014,07,16,11,25,22.90
2014,07,16,11,26,22.90
2014,07,16,11,27,22.90
2014,07,16,11,28,22.80
2014,07,16,11,29,22.80
2014,07,16,11,30,22.70
2014,07,16,11,31,22.70
2014,07,16,11,32,22.70
2014,07,16,11,33,22.70
2014,07,16,11,34,22.70
2014,07,16,11,35,22.70
2014,07,16,11,36,22.70
2014,07,16,11,37,22.70
2014,07,16,11,38,22.80
2014,07,16,11,39,22.90
2014,07,16,11,40,22.90
2014,07,16,11,41,23.00
2014,07,16,11,42,23.00
2014,07,16,11,43,23.10
2014,07,16,11,44,23.10
2014,07,16,11,45,23.10
2014,07,16,11,46,23.10
2014,07,16,11,47,23.20
2014,07,16,11,48,23.20
2014,07,16,11,49,23.30
2014,07,16,11,50,23.40
2014,07,16,11,51,23.50
2014,07,16,11,52,23.50
2014,07,16,11,53,23.60
2014,07,16,11,54,23.60
2014,07,16,11,55,23.70
2014,07,16,11,56,23.70
2014,07,16,11,57,23.80
2014,07,16,11,58,23.90
2014,07,16,11,59,24.00
2014,07,16,12,00,24.10
2014,07,16,12,01,24.20
2014,07,16,12,02,24.30
2014,07,16,12,03,24.40
2014,07,16,12,04,24.50
2014,07,16,12,05,24.50
2014,07,16,12,06,24.60
2014,07,16,12,07,24.60
2014,07,16,12,08,24.60
2014,07,16,12,09,24.60
2014,07,16,12,10,24.70
2014,07,16,12,11,24.70
2014,07,16,12,12,24.80
2014,07,16,12,13,24.80
2014,07,16,12,14,24.90
2014,07,16,12,15,24.90
2014,07,16,12,16,24.80
2014,07,16,12,17,24.80
2014,07,16,12,18,24.80
2014,07,16,12,19,24.90
2014,07,16,12,20,24.90
2014,07,16,12,21,24.90
2014,07,16,12,22,24.90
2014,07,16,12,23,24.90
2014,07,16,12,24,25.00
2014,07,16,12,25,25.00
2014,07,16,12,26,25.00
2014,07,16,12,27,25.10
2014,07,16,12,28,25.00
2014,07,16,12,29,25.00
2014,07,16,12,30,25.00
2014,07,16,12,31,24.90
2014,07,16,12,32,24.90
2014,07,16,12,33,24.90
2014,07,16,12,34,24.90
2014,07,16,12,35,24.90
2014,07,16,12,36,25.00
2014,07,16,12,37,25.00
2014,07,16,12,38,24.90
2014,07,16,12,39,24.80
2014,07,16,12,40,24.80
2014,07,16,12,41,24.80
2014,07,16,12,42,24.80
2014,07,16,12,43,24.80
2014,07,16,12,44,24.80
2014,07,16,12,45,24.70
2014,07,16,12,46,24.70
2014,07,16,12,47,24.70
2014,07,16,12,48,24.70
2014,07,16,12,49,24.70
2014,07,16,12,50,24.80
2014,07,16,12,51,24.70
2014,07,16,12,52,24.70
2014,07,16,12,53,24.70
2014,07,16,12,54,24.70
2014,07,16,12,55,24.60
2014,07,16,12,56,24.50
2014,07,16,12,57,24.50
2014,07,16,12,58,24.50
2014,07,16,12,59,24.50
2014,07,16,13,00,24.50
2014,07,16,13,01,24.50
2014,07,16,13,02,24.50
2014,07,16,13,03,24.40
2014,07,16,13,04,24.40
2014,07,16,13,05,24.40
2014,07,16,13,06,24.30
2014,07,16,13,07,24.30
2014,07,16,13,08,24.30
2014,07,16,13,09,24.30
2014,07,16,13,10,24.30
2014,07,16,13,11,24.20
2014,07,16,13,12,24.20
2014,07,16,13,13,24.20
2014,07,16,13,14,24.20
2014,07,16,13,15,24.20
2014,07,16,13,16,24.20
2014,07,16,13,17,24.20
2014,07,16,13,18,24.30
2014,07,16,13,19,24.30
2014,07,16,13,20,24.30
2014,07,16,13,21,24.30
2014,07,16,13,22,24.40
2014,07,16,13,23,24.50
2014,07,16,13,24,24.50
2014,07,16,13,25,24.50
2014,07,16,13,26,24.60
2014,07,16,13,27,24.60
2014,07,16,13,28,24.60
2014,07,16,13,29,24.60
2014,07,16,13,30,24.60
2014,07,16,13,31,24.60
2014,07,16,13,32,24.70
2014,07,16,13,33,24.70
2014,07,16,13,34,24.70
2014,07,16,13,35,24.70
2014,07,16,13,36,24.80
2014,07,16,13,37,24.80
2014,07,16,13,38,24.90
2014,07,16,13,39,24.90
2014,07,16,13,40,24.90
2014,07,16,13,41,24.90
2014,07,16,13,42,24.90
2014,07,16,13,43,25.00
2014,07,16,13,44,25.10
2014,07,16,13,45,25.20
2014,07,16,13,46,25.30
2014,07,16,13,47,25.30
2014,07,16,13,48,25.40
2014,07,16,13,49,25.50
2014,07,16,13,50,25.50
2014,07,16,13,51,25.60
2014,07,16,13,52,25.70
2014,07,16,13,53,25.80
2014,07,16,13,54,25.90
2014,07,16,13,55,26.00
2014,07,16,13,56,26.10
2014,07,16,13,57,26.10
2014,07,16,13,58,26.20
2014,07,16,13,59,26.20
2014,07,16,14,00,26.30
2014,07,16,14,01,26.20
2014,07,16,14,02,26.20
2014,07,16,14,03,26.30
2014,07,16,14,04,26.30
2014,07,16,14,05,26.40
2014,07,16,14,06,26.50
2014,07,16,14,07,26.60
2014,07,16,14,08,26.50
2014,07,16,14,09,26.40
2014,07,16,14,10,26.30
2014,07,16,14,11,26.30
2014,07,16,14,12,26.20
2014,07,16,14,13,26.10
2014,07,16,14,14,26.00
2014,07,16,14,15,26.00
2014,07,16,14,16,26.00
2014,07,16,14,17,26.00
2014,07,16,14,18,26.00
2014,07,16,14,19,26.00
2014,07,16,14,20,26.10
2014,07,16,14,21,26.10
2014,07,16,14,22,26.20
2014,07,16,14,23,26.20
2014,07,16,14,24,26.20
2014,07,16,14,25,26.20
2014,07,16,14,26,26.30
2014,07,16,14,27,26.30
2014,07,16,14,28,26.40
2014,07,16,14,29,26.40
2014,07,16,14,30,26.40
2014,07,16,14,31,26.50
2014,07,16,14,32,26.50
2014,07,16,14,33,26.50
2014,07,16,14,34,26.60
2014,07,16,14,35,26.60
2014,07,16,14,36,26.70
2014,07,16,14,37,26.70
2014,07,16,14,38,26.70
2014,07,16,14,39,26.80
2014,07,16,14,40,26.80
2014,07,16,14,41,26.70
2014,07,16,14,42,26.70
2014,07,16,14,43,26.70
2014,07,16,14,44,26.80
2014,07,16,14,45,26.80
2014,07,16,14,46,26.90
2014,07,16,14,47,27.00
2014,07,16,14,48,27.10
2014,07,16,14,49,27.20
2014,07,16,14,50,27.20
2014,07,16,14,51,27.10
2014,07,16,14,52,27.10
2014,07,16,14,53,27.00
2014,07,16,14,54,27.00
2014,07,16,14,55,27.00
2014,07,16,14,56,27.00
2014,07,16,14,57,27.00
2014,07,16,14,58,27.10
2014,07,16,14,59,27.10
2014,07,16,15,00,27.10
2014,07,16,15,01,27.20
2014,07,16,15,02,27.20
2014,07,16,15,03,27.30
2014,07,16,15,04,27.30
2014,07,16,15,05,27.40
2014,07,16,15,06,27.50
2014,07,16,15,07,27.60
2014,07,16,15,08,27.60
2014,07,16,15,09,27.70
2014,07,16,15,10,27.60
2014,07,16,15,11,27.60
2014,07,16,15,12,27.60
2014,07,16,15,13,27.60
2014,07,16,15,14,27.70
2014,07,16,15,15,27.70
2014,07,16,15,16,27.70
2014,07,16,15,17,27.80
2014,07,16,15,18,27.90
2014,07,16,15,19,27.90
2014,07,16,15,20,27.90
2014,07,16,15,21,28.00
2014,07,16,15,22,28.00
2014,07,16,15,23,28.10
2014,07,16,15,24,28.00
2014,07,16,15,25,28.00
2014,07,16,15,26,27.80
2014,07,16,15,27,27.70
2014,07,16,15,28,27.70
2014,07,16,15,29,27.70
2014,07,16,15,30,27.80
2014,07,16,15,31,27.80
2014,07,16,15,32,27.90
2014,07,16,15,33,28.00
2014,07,16,15,34,28.10
2014,07,16,15,35,28.00
2014,07,16,15,36,27.80
2014,07,16,15,37,27.70
2014,07,16,15,38,27.70
2014,07,16,15,39,27.70
2014,07,16,15,40,27.70
2014,07,16,15,41,27.70
2014,07,16,15,42,27.60
2014,07,16,15,43,27.50
2014,07,16,15,44,27.40
2014,07,16,15,45,27.40
2014,07,16,15,46,27.40
2014,07,16,15,47,27.50
2014,07,16,15,48,27.60
2014,07,16,15,49,27.70
2014,07,16,15,50,27.70
2014,07,16,15,51,27.80
2014,07,16,15,52,27.80
2014,07,16,15,53,27.80
2014,07,16,15,54,27.90
2014,07,16,15,55,27.90
2014,07,16,15,56,27.90
2014,07,16,15,57,27.80
2014,07,16,15,58,27.80
2014,07,16,15,59,27.70
2014,07,16,16,00,27.70
2014,07,16,16,01,27.70
2014,07,16,16,02,27.80
2014,07,16,16,03,27.80
2014,07,16,16,04,27.90
2014,07,16,16,05,27.90
2014,07,16,16,06,27.90
2014,07,16,16,07,28.00
2014,07,16,16,08,27.90
2014,07,16,16,09,27.80
2014,07,16,16,10,27.80
2014,07,16,16,11,27.90
2014,07,16,16,12,27.90
2014,07,16,16,13,27.90
2014,07,16,16,14,27.90
2014,07,16,16,15,28.00
2014,07,16,16,16,28.00
2014,07,16,16,17,28.10
2014,07,16,16,18,28.20
2014,07,16,16,19,28.20
2014,07,16,16,20,28.10
2014,07,16,16,21,28.10
2014,07,16,16,22,28.00
2014,07,16,16,23,27.90
2014,07,16,16,24,27.90
2014,07,16,16,25,27.90
2014,07,16,16,26,27.90
2014,07,16,16,27,27.90
2014,07,16,16,28,27.90
2014,07,16,16,29,27.90
2014,07,16,16,30,27.90
2014,07,16,16,31,27.90
2014,07,16,16,32,27.90
2014,07,16,16,33,27.90
2014,07,16,16,34,27.80
2014,07,16,16,35,27.80
2014,07,16,16,36,27.90
2014,07,16,16,37,27.90
2014,07,16,16,38,28.00
2014,07,16,16,39,28.00
2014,07,16,16,40,28.00
2014,07,16,16,41,28.10
2014,07,16,16,42,28.10
2014,07,16,16,43,28.00
2014,07,16,16,44,28.00
2014,07,16,16,45,28.00
2014,07,16,16,46,28.00
2014,07,16,16,47,28.10
2014,07,16,16,48,28.10
2014,07,16,16,49,28.10
2014,07,16,16,50,28.10
2014,07,16,16,51,28.20
2014,07,16,16,52,28.30
2014,07,16,16,53,28.30
2014,07,16,16,54,28.30
2014,07,16,16,55,28.30
2014,07,16,16,56,28.30
2014,07,16,16,57,28.30
2014,07,16,16,58,28.30
2014,07,16,16,59,28.30
2014,07,16,17,00,28.30
2014,07,16,17,01,28.30
2014,07,16,17,02,28.30
2014,07,16,17,03,28.30
2014,07,16,17,04,28.40
2014,07,16,17,05,28.40
2014,07,16,17,06,28.50
2014,07,16,17,07,28.50
2014,07,16,17,08,28.60
2014,07,16,17,09,28.60
2014,07,16,17,10,28.60
2014,07,16,17,11,28.60
2014,07,16,17,12,28.60
2014,07,16,17,13,28.70
2014,07,16,17,14,28.80
2014,07,16,17,15,28.80
2014,07,16,17,16,28.80
2014,07,16,17,17,28.90
2014,07,16,17,18,28.90
2014,07,16,17,19,28.90